Total_Precipitation_Accumulation
2.40 2.64 2.57 2.37 2.50 2.62 2.89 3.14 3.32 3.06 2.82 2.57 2.21 2.00 2.03 2.20 2.44 2.18 2.15 2.12 1.89 1.82 1.72 1.62 1.52 1.57 1.75 2.00 2.20 2.39 2.68 2.91 3.13 3.34 3.50 3.71 3.99 4.35
2.47 2.66 2.58 2.44 2.55 2.63 2.82 3.13 3.48 3.50 2.98 2.40 2.22 2.10 2.25 2.24 2.43 2.15 2.05 2.13 1.91 1.73 1.62 1.57 1.52 1.51 1.55 1.72 1.94 2.13 2.27 2.42 2.63 2.80 2.97 3.12 3.24 3.51
2.31 2.46 2.51 2.64 2.71 2.72 2.84 3.00 3.32 3.60 3.20 2.56 2.44 2.42 2.55 2.50 2.38 2.13 1.89 1.82 1.66 1.65 1.51 1.43 1.41 1.46 1.53 1.59 1.75 1.95 2.02 2.14 2.35 2.52 2.71 2.88 2.92 3.05
2.31 2.45 2.34 2.56 2.77 2.72 2.83 2.83 2.97 3.36 3.23 2.89 2.80 2.74 2.73 2.59 2.56 2.37 2.02 1.82 1.75 1.77 1.54 1.44 1.41 1.39 1.44 1.47 1.60 1.79 1.93 2.02 2.10 2.18 2.26 2.41 2.58 2.76
2.32 2.32 2.29 2.52 2.53 2.65 2.77 2.73 2.74 2.92 3.15 3.03 2.91 3.00 2.94 2.81 2.77 2.54 2.32 2.27 1.91 1.81 1.73 1.64 1.62 1.61 1.58 1.57 1.60 1.69 1.82 1.95 2.06 2.18 2.28 2.36 2.43 2.53
2.33 2.28 2.23 2.27 2.35 2.48 2.57 2.67 2.76 2.90 3.06 3.08 3.08 3.18 3.14 3.17 3.22 2.95 2.76 2.65 2.30 1.89 1.93 1.82 1.76 1.67 1.56 1.50 1.51 1.61 1.75 1.95 2.11 2.19 2.26 2.33 2.40 2.42
2.35 2.27 2.12 2.14 2.24 2.32 2.21 2.37 2.56 2.70 2.75 2.85 2.93 3.15 3.19 3.28 3.26 3.14 2.98 2.96 2.76 2.26 2.09 1.96 1.90 1.79 1.74 1.72 1.63 1.61 1.64 1.75 1.96 2.12 2.18 2.27 2.36 2.38
2.40 2.35 2.21 2.09 2.06 2.00 1.90 1.94 2.08 2.23 2.42 2.69 2.78 2.98 3.16 3.32 3.54 3.58 3.42 3.21 3.00 2.70 2.62 2.43 2.16 2.06 1.89 1.73 1.74 1.58 1.44 1.46 1.55 1.70 1.86 2.04 2.23 2.41
2.31 2.30 2.01 1.84 1.97 1.86 1.89 1.88 1.88 2.03 2.18 2.45 2.61 2.69 2.94 3.17 3.48 3.57 3.59 3.51 3.28 3.09 2.97 2.78 2.45 2.20 1.96 1.83 1.81 1.54 1.37 1.30 1.31 1.35 1.44 1.61 1.78 2.00
2.13 2.18 2.12 2.04 2.06 2.13 2.04 1.89 1.77 1.88 2.04 1.99 2.00 2.17 2.45 2.87 3.13 3.18 3.36 3.39 3.24 3.03 2.97 2.88 2.56 2.32 2.07 1.95 1.91 1.62 1.44 1.40 1.37 1.29 1.25 1.34 1.49 1.64
1.99 2.01 2.01 1.96 2.10 2.03 1.92 1.86 1.84 1.88 1.86 1.85 1.80 1.84 1.98 2.24 2.65 2.83 2.92 2.89 2.73 2.47 2.38 2.42 2.29 2.27 2.19 2.05 1.88 1.77 1.56 1.40 1.33 1.35 1.32 1.29 1.37 1.51
2.01 1.96 1.91 1.82 1.86 1.82 1.77 1.86 1.84 1.85 1.92 1.85 1.70 1.61 1.57 1.77 2.18 2.34 2.46 2.53 2.38 2.26 1.98 1.98 1.96 2.06 2.12 1.90 1.75 1.73 1.68 1.64 1.52 1.39 1.35 1.34 1.47 1.43
1.96 1.94 1.86 1.88 1.68 1.63 1.62 1.61 1.64 1.69 1.80 1.83 1.76 1.69 1.70 1.72 1.84 2.05 2.26 2.39 2.35 2.10 1.96 2.01 1.97 2.02 2.03 1.89 1.75 1.69 1.72 1.79 1.76 1.70 1.66 1.66 1.72 1.66
1.90 1.84 1.86 1.81 1.62 1.58 1.51 1.48 1.53 1.48 1.46 1.58 1.60 1.56 1.56 1.59 1.68 1.87 2.09 2.23 2.29 2.11 2.04 2.14 2.11 2.08 2.05 1.86 1.67 1.56 1.59 1.74 1.89 1.99 1.97 2.06 2.05 2.12
1.79 1.84 1.80 1.69 1.48 1.32 1.33 1.35 1.28 1.22 1.33 1.45 1.47 1.39 1.37 1.42 1.53 1.70 1.86 2.05 2.06 1.95 1.87 2.01 2.11 2.12 2.10 1.90 1.67 1.56 1.55 1.57 1.68 1.89 2.13 2.25 2.23 2.27
1.84 1.83 1.69 1.59 1.39 1.26 1.29 1.25 1.18 1.25 1.37 1.40 1.42 1.40 1.38 1.41 1.44 1.53 1.68 1.84 1.91 1.81 1.78 1.86 2.04 2.24 2.17 1.97 1.91 1.72 1.67 1.63 1.57 1.74 2.06 2.33 2.52 2.59
2.08 1.91 1.74 1.63 1.49 1.39 1.39 1.44 1.48 1.52 1.47 1.45 1.51 1.57 1.55 1.45 1.41 1.49 1.70 1.80 1.80 1.73 1.77 1.83 1.95 2.17 2.20 2.09 2.04 1.85 1.82 1.72 1.64 1.76 2.00 2.15 2.31 2.52
1.93 1.77 1.75 1.72 1.63 1.61 1.62 1.62 1.62 1.62 1.58 1.62 1.64 1.65 1.63 1.54 1.48 1.51 1.66 1.76 1.76 1.72 1.72 1.79 2.03 2.29 2.33 2.08 1.76 1.70 1.73 1.70 1.70 1.91 2.06 2.05 2.06 2.14
1.87 1.83 1.80 1.78 1.68 1.66 1.70 1.70 1.64 1.63 1.68 1.69 1.69 1.71 1.78 1.82 1.81 1.77 1.79 1.90 1.93 1.88 1.80 1.85 2.04 2.24 2.22 1.93 1.62 1.48 1.63 1.78 1.94 2.05 2.15 2.10 1.97 1.97
1.73 1.76 1.75 1.77 1.79 1.79 1.79 1.78 1.74 1.75 1.75 1.76 1.82 1.87 1.96 2.04 2.10 2.06 2.00 1.98 2.00 2.05 2.05 2.01 2.01 2.08 2.18 2.11 1.93 1.80 1.73 1.88 2.06 2.14 2.11 2.10 2.04 2.05
1.69 1.68 1.66 1.66 1.70 1.75 1.74 1.74 1.75 1.79 1.83 1.90 1.92 1.96 2.04 2.07 2.04 2.01 2.00 2.08 2.11 2.19 2.13 1.91 1.86 2.06 2.26 2.46 2.24 1.88 1.78 1.83 1.92 1.98 2.04 2.14 2.14 2.12
1.66 1.62 1.62 1.63 1.68 1.74 1.78 1.79 1.80 1.84 1.92 2.03 2.04 2.05 2.09 2.08 2.01 2.01 2.09 2.15 2.12 2.11 2.11 2.06 2.17 2.31 2.39 2.41 2.15 1.92 1.92 1.97 2.00 2.03 2.03 1.97 1.92 1.88
1.66 1.63 1.61 1.56 1.56 1.61 1.65 1.69 1.75 1.84 1.89 1.97 2.03 2.08 2.13 2.12 2.07 2.11 2.18 2.27 2.32 2.33 2.41 2.44 2.43 2.40 2.28 2.22 2.16 2.03 1.98 2.12 2.21 2.19 2.09 1.92 1.61 1.37